Peoria, IL

11:02 AM CST on February 27, 2017 (GMT -0600)
Greater Peoria Regional

Weather History for KPIA - January, 2013

Change the Weather History Date:

Sunday, January 20, 2013

  Actual Average Record
Temperature  
Mean Temperature 23 °F 25 °F  
Max Temperature 30 °F 33 °F 65 °F (1906)
Min Temperature 15 °F 17 °F -22 °F (1985)
Degree Days  
Heating Degree Days 42 40  
Month to date heating degree days 727 800  
Since 1 July heating degree days 2873 3078  
Cooling Degree Days 0 0  
Month to date cooling degree days 0 0  
Year to date cooling degree days 0 0  
Moisture  
Dew Point 8 °F    
Average Humidity 60    
Maximum Humidity 74    
Minimum Humidity 46    
Precipitation  
Precipitation T in 0.05 in 1.14 in (1959)
Month to date precipitation 1.56 1.21  
Year to date precipitation 1.56 1.21  
Snow  
Snow T in 0.20 in 6.40 in (1959)
Month to date snowfall 0.2 4.5  
Since 1 July snowfall 3.4 12.7  
Snow Depth 0.00 in    
Sea Level Pressure  
Sea Level Pressure 30.31 in    
Wind  
Wind Speed 10 mph (NW)    
Max Wind Speed 21 mph    
Max Gust Speed 33 mph    
Visibility 10 miles    
Events Snow    
T = Trace of Precipitation, MM = Missing Value Source: NWS Daily Summary

Daily Weather History Graph

Daily Weather History Graph

Search for Another Location

Airport or City:

Trip Planner

Search our weather history database for the weather conditions in past years. The results will help you decide how hot, cold, wet, or windy it might be!

Date:

Astronomy

Jan. 20, 2013 Rise Set
Actual Time 7:17 AM CST 5:02 PM CST
Civil Twilight 6:48 AM CST 5:32 PM CST
Nautical Twilight 6:14 AM CST 6:05 PM CST
Astronomical Twilight 5:42 AM CST 6:38 PM CST
Moon 12:03 PM CST (1/20) 1:50 AM CST (1/20)
Length of Visible Light 10h 43m
Length of Day
9h 44m
Waxing Gibbous, 66% of the Moon is Illuminated
Jan 20
Waxing Gibbous
Jan 26
Full
Feb 3
Last Quarter
Feb 10
New
Feb 17
First Quarter

Hourly Weather History & Observations

Time (CST) Temp. Windchill Dew Point Humidity Pressure Visibility Wind Dir Wind Speed Gust Speed Precip Events Conditions
12:54 AM 27.0 °F 14.7 °F 9.0 °F 47% 30.15 in 10.0 mi NW 16.1 mph 26.5 mph N/A   Clear
1:54 AM 24.8 °F 14.0 °F 8.6 °F 50% 30.17 in 10.0 mi WNW 11.5 mph 19.6 mph N/A   Clear
2:54 AM 21.9 °F 8.7 °F 7.0 °F 53% 30.23 in 10.0 mi WNW 15.0 mph 21.9 mph N/A   Clear
3:54 AM 19.9 °F 6.7 °F 7.0 °F 57% 30.26 in 10.0 mi WNW 13.8 mph 23.0 mph N/A   Clear
4:54 AM 18.0 °F 6.9 °F 6.1 °F 60% 30.28 in 10.0 mi NNW 9.2 mph 20.7 mph N/A   Clear
5:54 AM 16.0 °F 2.9 °F 6.1 °F 65% 30.30 in 10.0 mi NNW 11.5 mph - N/A   Clear
6:54 AM 15.8 °F 5.1 °F 6.8 °F 68% 30.31 in 10.0 mi NW 8.1 mph - N/A   Clear
7:54 AM 15.1 °F 4.2 °F 7.0 °F 70% 30.35 in 10.0 mi NNW 8.1 mph - N/A   Clear
8:54 AM 16.0 °F 5.3 °F 5.0 °F 62% 30.35 in 10.0 mi NNW 8.1 mph 17.3 mph N/A   Scattered Clouds
9:54 AM 19.0 °F 11.1 °F 5.0 °F 54% 30.36 in 10.0 mi Variable 5.8 mph - N/A   Partly Cloudy
10:54 AM 19.0 °F 9.0 °F 5.0 °F 54% 30.37 in 10.0 mi West 8.1 mph - N/A   Overcast
11:54 AM 19.9 °F 8.6 °F 6.1 °F 55% 30.36 in 10.0 mi WNW 10.4 mph - N/A   Overcast
12:54 PM 21.0 °F 8.6 °F 6.1 °F 53% 30.35 in 10.0 mi WNW 12.7 mph - N/A   Overcast
1:54 PM 19.9 °F 9.3 °F 5.0 °F 52% 30.34 in 10.0 mi NW 9.2 mph - N/A   Overcast
2:54 PM 21.2 °F 11.7 °F 6.8 °F 54% 30.31 in 10.0 mi WNW 8.1 mph - N/A   Overcast
3:54 PM 19.9 °F 10.1 °F 9.0 °F 62% 30.34 in 10.0 mi WNW 8.1 mph - N/A   Overcast
4:54 PM 19.0 °F 10.0 °F 9.0 °F 65% 30.34 in 10.0 mi WNW 6.9 mph - N/A   Overcast
5:54 PM 18.0 °F 6.9 °F 10.9 °F 74% 30.35 in 10.0 mi NW 9.2 mph - N/A   Partly Cloudy
6:54 PM 18.0 °F 9.8 °F 12.0 °F 78% 30.35 in 8.0 mi WNW 5.8 mph - 0.00 in Snow Light Snow
7:11 PM 18.0 °F 8.7 °F 12.0 °F 78% 30.31 in 6.0 mi WNW 6.9 mph - 0.00 in Snow Light Snow
7:37 PM 17.1 °F 5.0 °F 10.0 °F 74% 30.30 in 10.0 mi WNW 10.4 mph - 0.00 in   Overcast
7:54 PM 17.1 °F 5.8 °F 10.0 °F 74% 30.34 in 10.0 mi WNW 9.2 mph - 0.00 in   Overcast
8:54 PM 17.1 °F 6.6 °F 10.0 °F 74% 30.33 in 10.0 mi WNW 8.1 mph - N/A   Overcast
9:01 PM 17.1 °F 7.6 °F 10.0 °F 74% 30.29 in 10.0 mi NW 6.9 mph - N/A   Overcast
9:54 PM 17.1 °F 5.8 °F 9.0 °F 71% 30.32 in 10.0 mi WNW 9.2 mph - N/A   Overcast
10:37 PM 16.0 °F 4.4 °F 8.1 °F 71% 30.29 in 10.0 mi NW 9.2 mph - N/A   Mostly Cloudy
10:54 PM 15.1 °F 4.2 °F 8.1 °F 74% 30.32 in 10.0 mi WNW 8.1 mph - N/A   Scattered Clouds
11:14 PM 16.0 °F 6.3 °F 8.1 °F 71% 30.28 in 10.0 mi WNW 6.9 mph - N/A   Mostly Cloudy
11:54 PM 16.0 °F 2.3 °F 8.1 °F 71% 30.31 in 9.0 mi WNW 12.7 mph - 0.00 in   Overcast